GPD853 KSYR-KTEB

Flight info

Callsign GPD853
Flight time 0h 50m
Altitude 23000
Route POMPY HNK/N0282F170 V167 WEARD/N0283F160 V489 COATE
Aircraft PC12/L-SDFGRWY/S

Departure

Time 2026-04-24 00:43
Airport Syracuse Hancock International Airport (KSYR)

Arrival

Time 2026-04-24 01:33
Airport Teterboro Airport (KTEB)
Time Latitude Longitude Altitude Speed Heading
2026-04-24 00:16 43.11644 -76.11076 409 ft 0 kts 81°
2026-04-24 00:34 43.11644 -76.11075 416 ft 0 kts 81°
2026-04-24 00:34 43.11650 -76.11028 411 ft 12 kts 81°
2026-04-24 00:34 43.11650 -76.10926 413 ft 9 kts 111°
2026-04-24 00:35 43.11632 -76.10866 412 ft 0 kts 123°
2026-04-24 00:35 43.11628 -76.10854 412 ft 6 kts 106°
2026-04-24 00:35 43.11628 -76.10850 409 ft 0 kts 100°
2026-04-24 00:36 43.11604 -76.10786 413 ft 13 kts 138°
2026-04-24 00:36 43.11521 -76.10672 412 ft 21 kts 130°
2026-04-24 00:37 43.11408 -76.10511 414 ft 25 kts 135°
2026-04-24 00:37 43.11278 -76.10326 411 ft 28 kts 134°
2026-04-24 00:37 43.11138 -76.10127 406 ft 29 kts 133°
2026-04-24 00:37 43.11048 -76.09991 405 ft 19 kts 123°
2026-04-24 00:38 43.11038 -76.09823 405 ft 18 kts 87°
2026-04-24 00:38 43.11039 -76.09664 409 ft 16 kts 87°
2026-04-24 00:38 43.11045 -76.09514 410 ft 17 kts 88°
2026-04-24 00:38 43.11051 -76.09335 411 ft 19 kts 86°
2026-04-24 00:39 43.11023 -76.09268 412 ft 0 kts 171°
2026-04-24 00:41 43.11018 -76.09267 412 ft 5 kts 174°
2026-04-24 00:41 43.10937 -76.09283 412 ft 15 kts 229°
2026-04-24 00:42 43.10925 -76.09500 411 ft 42 kts 267°
2026-04-24 00:42 43.10906 -76.10123 405 ft 86 kts 265°
2026-04-24 00:42 43.10861 -76.11061 484 ft 106 kts 268°
2026-04-24 00:42 43.10831 -76.12126 662 ft 116 kts 270°
2026-04-24 00:43 43.10798 -76.13247 950 ft 120 kts 269°
2026-04-24 00:43 43.10737 -76.14357 1457 ft 114 kts 269°
2026-04-24 00:43 43.10657 -76.15410 1935 ft 110 kts 269°
2026-04-24 00:43 43.10552 -76.16462 2341 ft 112 kts 268°
2026-04-24 00:44 43.10157 -76.17376 2741 ft 127 kts 213°
2026-04-24 00:44 43.09238 -76.17427 3047 ft 146 kts 156°
2026-04-24 00:44 43.08464 -76.16527 3447 ft 149 kts 132°
2026-04-24 00:44 43.07707 -76.15494 3822 ft 165 kts 135°
2026-04-24 00:45 43.06812 -76.14346 4042 ft 186 kts 136°
2026-04-24 00:45 43.05854 -76.13145 4527 ft 190 kts 136°
2026-04-24 00:45 43.04870 -76.11905 4981 ft 193 kts 135°
2026-04-24 00:45 43.03870 -76.10643 5364 ft 203 kts 136°
2026-04-24 00:46 43.02801 -76.09294 5695 ft 211 kts 136°
2026-04-24 00:46 43.01695 -76.07900 5938 ft 221 kts 137°
2026-04-24 00:46 43.00562 -76.06469 6325 ft 223 kts 136°
2026-04-24 00:46 42.99415 -76.05023 6647 ft 227 kts 136°
2026-04-24 00:47 42.98248 -76.03555 7003 ft 230 kts 137°
2026-04-24 00:47 42.97063 -76.02063 7356 ft 233 kts 137°
2026-04-24 00:47 42.95859 -76.00546 7673 ft 239 kts 138°
2026-04-24 00:47 42.94613 -75.98978 7888 ft 246 kts 138°
2026-04-24 00:48 42.93347 -75.97391 8207 ft 248 kts 139°
2026-04-24 00:48 42.91918 -75.96075 8435 ft 250 kts 154°
2026-04-24 00:48 42.90370 -75.94913 8664 ft 256 kts 155°
2026-04-24 00:48 42.88810 -75.93745 8998 ft 256 kts 155°
2026-04-24 00:49 42.87245 -75.92548 9271 ft 259 kts 155°
2026-04-24 00:49 42.85667 -75.91337 9567 ft 261 kts 155°
2026-04-24 00:49 42.84095 -75.90134 10024 ft 254 kts 155°
2026-04-24 00:49 42.82545 -75.88953 10368 ft 257 kts 156°
2026-04-24 00:50 42.80975 -75.87761 10697 ft 260 kts 155°
2026-04-24 00:50 42.79401 -75.86563 10981 ft 264 kts 155°
2026-04-24 00:50 42.77794 -75.85338 11322 ft 266 kts 155°
2026-04-24 00:50 42.76174 -75.84104 11649 ft 268 kts 155°
2026-04-24 00:51 42.74537 -75.82860 11983 ft 271 kts 154°
2026-04-24 00:51 42.72880 -75.81602 12282 ft 274 kts 154°
2026-04-24 00:51 42.71207 -75.80330 12606 ft 276 kts 154°
2026-04-24 00:51 42.69521 -75.79050 12927 ft 279 kts 154°
2026-04-24 00:52 42.67821 -75.77760 13239 ft 281 kts 154°
2026-04-24 00:52 42.66107 -75.76461 13533 ft 284 kts 153°
2026-04-24 00:52 42.64377 -75.75150 13846 ft 286 kts 153°
2026-04-24 00:52 42.62632 -75.73829 14142 ft 287 kts 154°
2026-04-24 00:53 42.60889 -75.72509 14436 ft 287 kts 154°
2026-04-24 00:53 42.59136 -75.71184 14709 ft 289 kts 154°
2026-04-24 00:53 42.57401 -75.69872 15136 ft 280 kts 154°
2026-04-24 00:53 42.55740 -75.68613 15708 ft 268 kts 155°
2026-04-24 00:54 42.54129 -75.67395 16202 ft 261 kts 155°
2026-04-24 00:54 42.52559 -75.66211 16696 ft 255 kts 156°
2026-04-24 00:54 42.51031 -75.65058 17254 ft 248 kts 156°
2026-04-24 00:54 42.49520 -75.63920 17689 ft 249 kts 156°
2026-04-24 00:55 42.48000 -75.62779 18130 ft 250 kts 157°
2026-04-24 00:55 42.46476 -75.61632 18518 ft 251 kts 157°
2026-04-24 00:55 42.44965 -75.60495 18866 ft 252 kts 157°
2026-04-24 00:55 42.43422 -75.59335 19214 ft 254 kts 157°
2026-04-24 00:56 42.41871 -75.58170 19585 ft 255 kts 157°
2026-04-24 00:56 42.40315 -75.57002 19947 ft 256 kts 156°
2026-04-24 00:56 42.38756 -75.55832 20310 ft 258 kts 157°
2026-04-24 00:56 42.37181 -75.54651 20680 ft 259 kts 157°
2026-04-24 00:57 42.35599 -75.53465 21051 ft 261 kts 157°
2026-04-24 00:57 42.34007 -75.52272 21413 ft 262 kts 157°
2026-04-24 00:57 42.30796 -75.49869 22152 ft 265 kts 157°
2026-04-24 00:58 42.29176 -75.48657 22516 ft 266 kts 157°
2026-04-24 00:58 42.27549 -75.47441 22879 ft 268 kts 157°
2026-04-24 00:58 42.25884 -75.46202 23001 ft 282 kts 156°
2026-04-24 00:58 42.24115 -75.44890 23008 ft 297 kts 156°
2026-04-24 00:59 42.22271 -75.43513 23012 ft 309 kts 156°
2026-04-24 00:59 42.20360 -75.42083 23012 ft 318 kts 155°
2026-04-24 00:59 42.18401 -75.40622 23015 ft 325 kts 155°
2026-04-24 00:59 42.16410 -75.39141 23005 ft 329 kts 155°
2026-04-24 01:00 42.14407 -75.37651 23003 ft 327 kts 155°
2026-04-24 01:00 42.12440 -75.36185 23001 ft 319 kts 155°
2026-04-24 01:00 42.10522 -75.34756 23010 ft 312 kts 156°
2026-04-24 01:00 42.08633 -75.33354 22998 ft 308 kts 156°
2026-04-24 01:01 42.06849 -75.31792 23003 ft 308 kts 139°
2026-04-24 01:01 42.05533 -75.29554 23008 ft 302 kts 115°
2026-04-24 01:01 42.04576 -75.27052 23011 ft 301 kts 112°
2026-04-24 01:01 42.03646 -75.24532 23016 ft 302 kts 112°
2026-04-24 01:02 42.02710 -75.22029 23016 ft 305 kts 112°
2026-04-24 01:02 42.01745 -75.19482 23010 ft 306 kts 112°
2026-04-24 01:02 42.00779 -75.16930 23019 ft 307 kts 112°
2026-04-24 01:02 41.99813 -75.14365 23011 ft 307 kts 112°
2026-04-24 01:03 41.98846 -75.11801 22998 ft 308 kts 112°
2026-04-24 01:03 41.97875 -75.09232 22973 ft 309 kts 112°
2026-04-24 01:03 41.96894 -75.06636 22857 ft 314 kts 112°
2026-04-24 01:03 41.95894 -75.03993 22614 ft 322 kts 113°
2026-04-24 01:04 41.94868 -75.01286 22341 ft 328 kts 113°
2026-04-24 01:04 41.93828 -74.98550 22091 ft 331 kts 113°
2026-04-24 01:04 41.92777 -74.95781 21711 ft 337 kts 113°
2026-04-24 01:04 41.91699 -74.92940 21174 ft 345 kts 113°
2026-04-24 01:05 41.90595 -74.90040 20653 ft 350 kts 114°
2026-04-24 01:05 41.89485 -74.87130 20335 ft 347 kts 114°
2026-04-24 01:05 41.88407 -74.84314 20377 ft 332 kts 113°
2026-04-24 01:05 41.87369 -74.81588 20373 ft 325 kts 113°
2026-04-24 01:06 41.86351 -74.78912 20324 ft 321 kts 113°
2026-04-24 01:06 41.85327 -74.76224 20087 ft 326 kts 113°
2026-04-24 01:06 41.84287 -74.73511 19847 ft 329 kts 113°
2026-04-24 01:06 41.83239 -74.70778 19606 ft 330 kts 114°
2026-04-24 01:07 41.82189 -74.68042 19371 ft 330 kts 113°
2026-04-24 01:07 41.81138 -74.65300 19137 ft 330 kts 114°
2026-04-24 01:07 41.80087 -74.62563 18898 ft 330 kts 113°
2026-04-24 01:07 41.79057 -74.59881 18467 ft 337 kts 114°
2026-04-24 01:08 41.77823 -74.57138 17947 ft 343 kts 128°
2026-04-24 01:08 41.76073 -74.55048 17402 ft 341 kts 149°
2026-04-24 01:08 41.73951 -74.53782 16983 ft 327 kts 172°
2026-04-24 01:08 41.71802 -74.53410 16969 ft 299 kts 191°
2026-04-24 01:09 41.69779 -74.53686 16620 ft 293 kts 199°
2026-04-24 01:09 41.67739 -74.54099 16113 ft 299 kts 199°
2026-04-24 01:09 41.65705 -74.54497 16007 ft 290 kts 199°
2026-04-24 01:09 41.63736 -74.54853 16000 ft 280 kts 199°
2026-04-24 01:10 41.61836 -74.55209 15994 ft 273 kts 200°
2026-04-24 01:10 41.59975 -74.55568 15985 ft 268 kts 200°
2026-04-24 01:10 41.58122 -74.55926 15843 ft 271 kts 200°
2026-04-24 01:10 41.56241 -74.56287 15564 ft 277 kts 200°
2026-04-24 01:11 41.54303 -74.56656 15180 ft 286 kts 199°
2026-04-24 01:11 41.52306 -74.57032 14787 ft 293 kts 198°
2026-04-24 01:11 41.50275 -74.57410 14399 ft 296 kts 197°
2026-04-24 01:11 41.48226 -74.57793 14018 ft 298 kts 197°
2026-04-24 01:12 41.46166 -74.58181 13651 ft 299 kts 197°
2026-04-24 01:12 41.44124 -74.58562 13478 ft 293 kts 198°
2026-04-24 01:12 41.42123 -74.58935 13348 ft 287 kts 198°
2026-04-24 01:12 41.40214 -74.59417 13283 ft 271 kts 206°
2026-04-24 01:13 41.38421 -74.60103 13227 ft 266 kts 208°
2026-04-24 01:13 41.36665 -74.60787 13228 ft 261 kts 208°
2026-04-24 01:13 41.34938 -74.61444 13245 ft 256 kts 208°
2026-04-24 01:13 41.33162 -74.62132 12612 ft 276 kts 207°
2026-04-24 01:14 41.31271 -74.62861 11952 ft 289 kts 206°
2026-04-24 01:14 41.29315 -74.63590 11301 ft 294 kts 205°
2026-04-24 01:14 41.27344 -74.64325 10667 ft 294 kts 205°
2026-04-24 01:14 41.25383 -74.65067 10041 ft 292 kts 205°
2026-04-24 01:15 41.23436 -74.65807 9375 ft 289 kts 205°
2026-04-24 01:15 41.21550 -74.66516 8700 ft 275 kts 204°
2026-04-24 01:15 41.19752 -74.67192 8038 ft 263 kts 204°
2026-04-24 01:15 41.18022 -74.67850 7389 ft 254 kts 204°
2026-04-24 01:16 41.16341 -74.68461 6754 ft 247 kts 199°
2026-04-24 01:16 41.14637 -74.68536 6152 ft 246 kts 176°
2026-04-24 01:16 41.12975 -74.68143 5545 ft 240 kts 173°
2026-04-24 01:16 41.11355 -74.67729 4934 ft 235 kts 172°
2026-04-24 01:17 41.09754 -74.67332 4337 ft 232 kts 172°
2026-04-24 01:17 41.08182 -74.66969 3749 ft 228 kts 172°
2026-04-24 01:17 41.06650 -74.66633 3177 ft 225 kts 172°
2026-04-24 01:17 41.05146 -74.66127 2805 ft 229 kts 155°
2026-04-24 01:18 41.03906 -74.64815 3008 ft 229 kts 124°
2026-04-24 01:18 41.03317 -74.62891 3134 ft 232 kts 95°
2026-04-24 01:18 41.03497 -74.60765 3090 ft 233 kts 67°
2026-04-24 01:18 41.03684 -74.58635 3088 ft 236 kts 83°
2026-04-24 01:19 41.03339 -74.56475 2988 ft 248 kts 113°
2026-04-24 01:19 41.02360 -74.54576 2935 ft 254 kts 136°
2026-04-24 01:19 41.00862 -74.53367 2973 ft 253 kts 155°
2026-04-24 01:19 40.99256 -74.52413 3022 ft 251 kts 157°
2026-04-24 01:20 40.97634 -74.51503 3011 ft 254 kts 158°
2026-04-24 01:20 40.96006 -74.50581 3016 ft 256 kts 157°
2026-04-24 01:20 40.94371 -74.49637 3017 ft 256 kts 158°
2026-04-24 01:20 40.92740 -74.48696 3017 ft 256 kts 157°
2026-04-24 01:21 40.91098 -74.47754 3018 ft 257 kts 157°
2026-04-24 01:21 40.89454 -74.46811 3015 ft 258 kts 157°
2026-04-24 01:21 40.87816 -74.45871 3015 ft 252 kts 157°
2026-04-24 01:21 40.86248 -74.44973 3020 ft 239 kts 158°
2026-04-24 01:22 40.84768 -74.44126 3021 ft 224 kts 158°
2026-04-24 01:22 40.83386 -74.43334 3008 ft 209 kts 158°
2026-04-24 01:22 40.82129 -74.42614 3003 ft 185 kts 158°
2026-04-24 01:22 40.81004 -74.41969 3003 ft 169 kts 158°
2026-04-24 01:23 40.79982 -74.41312 2987 ft 160 kts 141°
2026-04-24 01:23 40.79261 -74.40250 2980 ft 152 kts 126°
2026-04-24 01:23 40.78608 -74.39186 2987 ft 147 kts 126°
2026-04-24 01:23 40.77960 -74.38143 2989 ft 147 kts 127°
2026-04-24 01:24 40.77304 -74.37091 2976 ft 149 kts 127°
2026-04-24 01:24 40.76648 -74.36039 2980 ft 148 kts 127°
2026-04-24 01:24 40.75989 -74.34980 2872 ft 155 kts 127°
2026-04-24 01:24 40.75274 -74.33831 2611 ft 168 kts 127°
2026-04-24 01:25 40.74523 -74.32629 2343 ft 169 kts 127°
2026-04-24 01:25 40.73790 -74.31459 2056 ft 166 kts 126°
2026-04-24 01:25 40.73079 -74.30323 1994 ft 156 kts 126°
2026-04-24 01:25 40.72400 -74.29232 1970 ft 151 kts 125°
2026-04-24 01:26 40.71742 -74.28132 1866 ft 154 kts 117°
2026-04-24 01:26 40.71544 -74.26815 1812 ft 143 kts 75°
2026-04-24 01:26 40.71951 -74.25668 1680 ft 136 kts 41°
2026-04-24 01:26 40.72572 -74.24774 1693 ft 129 kts 40°
2026-04-24 01:27 40.73163 -74.23911 1691 ft 126 kts 40°
2026-04-24 01:27 40.73742 -74.23063 1691 ft 123 kts 40°
2026-04-24 01:27 40.74315 -74.22225 1694 ft 123 kts 41°
2026-04-24 01:27 40.74888 -74.21387 1669 ft 125 kts 40°
2026-04-24 01:28 40.75488 -74.20512 1492 ft 129 kts 41°
2026-04-24 01:28 40.76070 -74.19652 1312 ft 121 kts 42°
2026-04-24 01:28 40.76575 -74.18903 1290 ft 98 kts 40°
2026-04-24 01:28 40.76985 -74.18300 1288 ft 79 kts 38°
2026-04-24 01:29 40.77390 -74.17726 1313 ft 94 kts 39°
2026-04-24 01:29 40.77864 -74.17039 1305 ft 106 kts 41°
2026-04-24 01:29 40.78344 -74.16339 1308 ft 99 kts 39°
2026-04-24 01:29 40.78781 -74.15719 1302 ft 96 kts 39°
2026-04-24 01:30 40.79080 -74.15285 1301 ft 97 kts 40°
2026-04-24 01:30 40.79525 -74.14611 1295 ft 98 kts 41°
2026-04-24 01:30 40.79983 -74.13937 1274 ft 98 kts 40°
2026-04-24 01:30 40.80439 -74.13269 1232 ft 101 kts 40°
2026-04-24 01:31 40.81077 -74.12340 1063 ft 106 kts 41°
2026-04-24 01:31 40.81565 -74.11614 936 ft 104 kts 44°
2026-04-24 01:31 40.82008 -74.10930 800 ft 94 kts 43°
2026-04-24 01:31 40.82305 -74.10498 715 ft 94 kts 44°
2026-04-24 01:32 40.82736 -74.09862 597 ft 92 kts 41°
2026-04-24 01:32 40.83169 -74.09258 485 ft 92 kts 44°
2026-04-24 01:32 40.83583 -74.08618 389 ft 93 kts 43°
2026-04-24 01:32 40.84015 -74.07980 259 ft 94 kts 41°
2026-04-24 01:33 40.84452 -74.07354 130 ft 92 kts 44°
2026-04-24 01:33 40.84876 -74.06723 14 ft 82 kts 43°
2026-04-24 01:33 40.85128 -74.06364 15 ft 23 kts 56°
2026-04-24 01:33 40.85186 -74.06363 14 ft 13 kts 284°
2026-04-24 01:34 40.85220 -74.06399 14 ft 0 kts 323°
2026-04-24 01:34 40.85267 -74.06446 14 ft 11 kts 323°
2026-04-24 01:34 40.85304 -74.06538 12 ft 16 kts 287°
2026-04-24 01:34 40.85290 -74.06555 12 ft 0 kts 142°